Location: Bijele Vode
(45.2833°N, 16.2000°E)
Time: 02:02:10
(UTC+00:00)

ITUPSAT 1 - Visible Passes

Search period start: 29 November 2021 00:00
Search period end: 09 December 2021 00:00
Orbit: 701 x 712 km, 98.6° (Epoch: 28 November)

Date Brightness Start Highest point End Pass type
(mag) Time Alt. Az. Time Alt. Az. Time Alt. Az.
29 Nov ? 05:17:46 10° SE 05:22:23 52° ENE 05:27:03 10° N visible
30 Nov ? 04:25:52 10° ESE 04:29:06 18° ENE 04:32:19 10° NNE visible
01 Dec ? 05:08:16 10° SE 05:12:46 42° ENE 05:17:17 10° N visible
02 Dec ? 04:16:51 10° E 04:19:32 15° ENE 04:22:16 10° NNE visible
03 Dec ? 04:58:51 10° SE 05:03:10 35° ENE 05:07:30 10° N visible
04 Dec ? 04:08:02 10° E 04:10:01 13° ENE 04:12:00 10° NNE visible
05 Dec ? 04:49:30 10° ESE 04:53:34 29° ENE 04:57:39 10° N visible
06 Dec ? 03:59:56 10° ENE 04:00:30 10° NE 04:01:04 10° NE visible
06 Dec ? 05:32:39 10° SSE 05:37:23 71° ENE 05:42:11 10° N visible
07 Dec ? 04:40:12 10° ESE 04:43:59 24° ENE 04:47:47 10° N visible
08 Dec ? 05:23:04 10° SSE 05:27:45 57° ENE 05:32:27 10° N visible
